Zurück zum Katalog

STARLINK-30922

AktivKommunikationVLEO
NORAD 58414·PAYLOAD·🇺🇸 United States

Gestartet Nov 22, 2023 von Cape Canaveral Space Force Station

Loading…

Nächste Überflüge (nächste 24 Stunden)

TLE

AktuellSource: CelesTrak SupGP

Epoche: Sep 14, 2026, 22:35 UTC

1 58414C 23180N   26257.94145833  .00063213  00000+0  22898-2 0  2577
2 58414  43.0042  63.9399 0001513 275.8114 217.0601 15.27543220    13

Verfolge STARLINK-30922 in Echtzeit mit AllMySat

Download on the App Store